Regional Weather Roundup
Issued by NWS Newport/Morehead, NC

Current Version | Previous Version | Graphics & Text | Print | Product List | Glossary Off
Versions: 1 2 3 4 5 6 7 8 9 10 11 12 13 14 15 16 17 18 19 20 21 22 23 24 25 26 27 28 29 30 31 32 33 34 35 36 37 38 39 40 41 42 43 44 45 46 47 48 49 50

000
ASUS42 KMHX 021225
RWRMHX
WEATHER ROUNDUP FOR EASTERN NORTH CAROLINA
NATIONAL WEATHER SERVICE NEWPORT/MOREHEAD CITY NC
800 AM EDT TUE JUN 02 2015

NOTE: "FAIR" INDICATES FEW OR NO CLOUDS BELOW 12,000 FEET
WITH NO SIGNIFICANT WEATHER AND/OR OBSTRUCTIONS TO VISIBILITY

NCZ015>017-031-032-045>047-102-103-021300-
NORTH COAST

CITY           SKY/WX    TMP DP  RH WIND       PRES   REMARKS
EDENTON        SUNNY     75  70  83 SW9       30.01S
ELIZABETH CITY PTSUNNY   77  71  82 S13       30.01S
KITTY HAWK     SUNNY     77  69  77 SW6       30.02R
MANTEO         SUNNY     76  70  81 SW8       30.03R

$$

NCZ045>047-081-094-103-104-021300-
CENTRAL COAST

CITY           SKY/WX    TMP DP  RH WIND       PRES   REMARKS
FRISCO         SUNNY     77  68  73 SW6       30.03R
SWANQUARTER      N/A     79 N/A N/A S8G14     30.00S

$$

NCZ095-097-098-100-101-021300-
SOUTHERN COAST

CITY           SKY/WX    TMP DP  RH WIND       PRES   REMARKS
BEAUFORT       MOSUNNY   77  71  82 S10       30.03R
CEDAR ISLAND     N/A     81 N/A N/A SE5G10    30.06S
JACKSONVILLE   MOSUNNY   75  70  84 SW6       30.02R
PINEY ISLAND   PTSUNNY  N/A N/A N/A S7        30.03R
WILMINGTON     MOSUNNY   76  70  82 S6        30.03R


$$

NCZ011>013-027>030-043-044-078>080-089-090>093-098-021300-
COASTAL PLAIN

CITY           SKY/WX    TMP DP  RH WIND       PRES   REMARKS
AHOSKIE        PTSUNNY   71  69  92 S5        30.00R
CLINTON        PTSUNNY   73  71  96 CALM      30.02R
ELIZABETHTOWN  PTSUNNY   73  70  88 S3        30.03R
GOLDSBORO      PTSUNNY   73  70  88 CALM      30.00R
GREENVILLE     SUNNY     75  70  83 SW5       30.03R
HAVELOCK       MOSUNNY   77  71  82 SW3       30.04R
KENANSVILLE    MOSUNNY   72  69  91 CALM      30.03R
KINSTON        MOSUNNY   73  72  94 S6        30.02R
NEW BERN       MOSUNNY   76  70  82 SW7       30.03R
RICHLANDS      MOSUNNY   77  68  73 S9        30.03R
ROCKY MOUNT    MOSUNNY   73  71  93 SW8       30.01R
WASHINGTON     SUNNY     75  70  84 S5        30.03R
WHITEVILLE     PTSUNNY   73  69  87 SW5       30.03R

$$

AMZ130-135-150-152-154-156-158-170-250-252-270-ANZ085-086-088-633-658-670-021300-
MARINE OBSERVATIONS

STATION/POSITION TIME  TEMP    WIND        PRES    WAVE   SWELL
                       AIR SEA DIR/SP/G            HT/PER HT/PER
                 (UTC) (F)     (DEG/KT/KT) (MB)    (FT/S) (FT/S)
CHESAPEAKE LIGHT 1200   69     200/ 15/ 16 1016.6
64 E VA BEACH    1150   73 71  170/  6/  6 1016.3    3/ 8   3/ 8
DUCK             1200   76 54  190/ 10/ 13 1015.5
2 E DUCK         1111      60                N/A     3/ 8
OREGON INLET     1200   77 77  200/  8/ 10 1016.7
13E OREGON INLT  1200      75                N/A     3/ 8
HATTERAS CG      1200   78 78  210/  6/  9 1016.6
DIAMOND BUOY     1150   78 81  230/  8/ 10 1016.9    3/ 9   3/ 9
CAPE LOOKOUT     1200   78     200/  7/  9 1016.7
BEAUFORT LAB     1200   78 77  200/  9/ 10 1016.1
30 SE NEW RVR IN 1108   77 77  200/  4/  6 1016.8
27 SE WRIGHTSVLE 1200      77  230/  6/  6   N/A
5 SE WRIGHTSVLE  1108   74 78  190/  4/ 10 1016.7
225 S CAPE HAT   1150   77 76   CALM  /  2 1017.9    4/ 8   3/ 8
41 SE CHARLESTON 1150   78 80  240/  2/  4 1016.4    3/ 8   3/ 8

$$


USA.gov is the U.S. government's official web portal to all federal, state and local government web resources and services.